| time (UTC) | temp F | wind direction | speed MPH | gust MPH | rain 1hr in | rain 24hr in | rain mn in | humidity % | barometer mb |
| 20260509164546 | 85 | 136 | 0.0 | 5.0 | 0.00 | 0.00 | 0.00 | 15 | 1006.3 |
| 20260509164035 | 85 | 136 | 2.0 | 5.0 | 0.00 | 0.00 | 0.00 | 16 | 1006.3 |
| 20260509163537 | 85 | 121 | 1.0 | 4.0 | 0.00 | 0.00 | 0.00 | 15 | 1006.2 |
| 20260509163036 | 85 | 121 | 0.0 | 6.0 | 0.00 | 0.00 | 0.00 | 15 | 1006.2 |
| 20260509162533 | 85 | 120 | 1.0 | 6.0 | 0.00 | 0.00 | 0.00 | 15 | 1006.2 |
| 20260509162033 | 84 | 114 | 0.0 | 6.0 | 0.00 | 0.00 | 0.00 | 15 | 1006.2 |
| 20260509161535 | 84 | 114 | 2.0 | 6.0 | 0.00 | 0.00 | 0.00 | 15 | 1006.2 |
| 20260509161031 | 84 | 113 | 1.0 | 6.0 | 0.00 | 0.00 | 0.00 | 16 | 1006.2 |
| 20260509160530 | 83 | 106 | 1.0 | 5.0 | 0.00 | 0.00 | 0.00 | 16 | 1006.1 |
| 20260509160030 | 83 | 142 | 3.0 | 5.0 | 0.00 | 0.00 | 0.00 | 15 | 1006.1 |
| 20260509155529 | 83 | 140 | 1.0 | 5.0 | 0.00 | 0.00 | 0.00 | 16 | 1006.2 |
| 20260509155030 | 83 | 126 | 1.0 | 5.0 | 0.00 | 0.00 | 0.00 | 17 | 1006.1 |
| 20260509154529 | 83 | 128 | 1.0 | 6.0 | 0.00 | 0.00 | 0.00 | 17 | 1006.0 |
| 20260509154029 | 83 | 94 | 2.0 | 7.0 | 0.00 | 0.00 | 0.00 | 18 | 1006.0 |
| 20260509153529 | 83 | 108 | 3.0 | 7.0 | 0.00 | 0.00 | 0.00 | 19 | 1006.0 |
| 20260509153029 | 83 | 73 | 1.0 | 4.0 | 0.00 | 0.00 | 0.00 | 19 | 1006.0 |
| 20260509152529 | 83 | 67 | 2.0 | 5.0 | 0.00 | 0.00 | 0.00 | 20 | 1006.1 |
| 20260509152029 | 83 | 96 | 2.0 | 4.0 | 0.00 | 0.00 | 0.00 | 19 | 1006.1 |
| 20260509151529 | 82 | 105 | 2.0 | 4.0 | 0.00 | 0.00 | 0.00 | 19 | 1006.1 |
| 20260509151028 | 82 | 188 | 0.0 | 3.0 | 0.00 | 0.00 | 0.00 | 21 | 1006.1 |
| 20260509150528 | 83 | 224 | 0.0 | 4.0 | 0.00 | 0.00 | 0.00 | 22 | 1006.1 |
| 20260509150034 | 84 | 230 | 1.0 | 4.0 | 0.00 | 0.00 | 0.00 | 20 | 1006.1 |
| 20260509145526 | 83 | 240 | 0.0 | 2.0 | 0.00 | 0.00 | 0.00 | 15 | 1005.9 |
| 20260509145023 | 83 | 240 | 0.0 | 0.0 | 0.00 | 0.00 | 0.00 | 16 | 1005.8 |
| 20260509144531 | 82 | 240 | 0.0 | 2.0 | 0.00 | 0.00 | 0.00 | 18 | 1005.9 |
| 20260509144023 | 82 | 240 | 0.0 | 2.0 | 0.00 | 0.00 | 0.00 | 19 | 1005.9 |
| 20260509143523 | 82 | 240 | 0.0 | 1.0 | 0.00 | 0.00 | 0.00 | 17 | 1005.9 |
| 20260509143023 | 81 | 240 | 0.0 | 1.0 | 0.00 | 0.00 | 0.00 | 18 | 1006.0 |
| 20260509142522 | 81 | 240 | 0.0 | 1.0 | 0.00 | 0.00 | 0.00 | 17 | 1006.0 |
| 20260509142022 | 81 | 240 | 0.0 | 1.0 | 0.00 | 0.00 | 0.00 | 17 | 1005.9 |
| 20260509141523 | 80 | 240 | 0.0 | 1.0 | 0.00 | 0.00 | 0.00 | 18 | 1005.8 |
| 20260509141022 | 80 | 241 | 0.0 | 2.0 | 0.00 | 0.00 | 0.00 | 18 | 1005.8 |
| 20260509140520 | 79 | 241 | 0.0 | 4.0 | 0.00 | 0.00 | 0.00 | 17 | 1005.8 |
| 20260509140020 | 78 | 241 | 1.0 | 5.0 | 0.00 | 0.00 | 0.00 | 17 | 1005.8 |
| 20260509135519 | 78 | 242 | 1.0 | 4.0 | 0.00 | 0.00 | 0.00 | 17 | 1005.7 |
| 20260509135021 | 77 | 242 | 0.0 | 5.0 | 0.00 | 0.00 | 0.00 | 18 | 1005.6 |
| 20260509134518 | 77 | 242 | 1.0 | 5.0 | 0.00 | 0.00 | 0.00 | 17 | 1005.5 |
| 20260509134117 | 77 | 268 | 1.0 | 2.0 | 0.00 | 0.00 | 0.00 | 17 | 1005.5 |
| 20260509133516 | 77 | 269 | 0.0 | 2.0 | 0.00 | 0.00 | 0.00 | 17 | 1005.4 |
| 20260509133016 | 76 | 269 | 0.0 | 2.0 | 0.00 | 0.00 | 0.00 | 17 | 1005.2 |
| 20260509132518 | 76 | 269 | 0.0 | 0.0 | 0.00 | 0.00 | 0.00 | 18 | 1005.1 |
| 20260509132014 | 76 | 269 | 0.0 | 0.0 | 0.00 | 0.00 | 0.00 | 17 | 1005.1 |
| 20260509131519 | 76 | 269 | 0.0 | 2.0 | 0.00 | 0.00 | 0.00 | 17 | 1005.0 |
| 20260509131013 | 76 | 269 | 0.0 | 2.0 | 0.00 | 0.00 | 0.00 | 17 | 1005.0 |
| 20260509130512 | 76 | 269 | 1.0 | 2.0 | 0.00 | 0.00 | 0.00 | 17 | 1005.0 |
| 20260509130016 | 75 | 269 | 0.0 | 0.0 | 0.00 | 0.00 | 0.00 | 17 | 1004.9 |
| 20260509125511 | 75 | 269 | 0.0 | 2.0 | 0.00 | 0.00 | 0.00 | 17 | 1004.9 |
| 20260509125011 | 75 | 269 | 0.0 | 3.0 | 0.00 | 0.00 | 0.00 | 17 | 1004.8 |
| 20260509124510 | 75 | 269 | 0.0 | 2.0 | 0.00 | 0.00 | 0.00 | 17 | 1004.7 |
| 20260509124008 | 75 | 269 | 0.0 | 3.0 | 0.00 | 0.00 | 0.00 | 17 | 1004.6 |
| 20260509123508 | 75 | 269 | 1.0 | 6.0 | 0.00 | 0.00 | 0.00 | 17 | 1004.6 |
| 20260509123008 | 75 | 269 | 2.0 | 6.0 | 0.00 | 0.00 | 0.00 | 17 | 1004.5 |
| 20260509122507 | 74 | 269 | 1.0 | 3.0 | 0.00 | 0.00 | 0.00 | 17 | 1004.5 |
| 20260509122008 | 75 | 269 | 1.0 | 3.0 | 0.00 | 0.00 | 0.00 | 17 | 1004.4 |
| 20260509121514 | 75 | 269 | 0.0 | 2.0 | 0.00 | 0.00 | 0.00 | 17 | 1004.3 |
| 20260509121006 | 75 | 269 | 1.0 | 2.0 | 0.00 | 0.00 | 0.00 | 16 | 1004.3 |
| 20260509120507 | 75 | 269 | 1.0 | 2.0 | 0.00 | 0.00 | 0.00 | 16 | 1004.3 |
| 20260509120005 | 75 | 269 | 1.0 | 2.0 | 0.00 | 0.00 | 0.00 | 16 | 1004.2 |
| 20260509115504 | 75 | 269 | 0.0 | 2.0 | 0.00 | 0.00 | 0.00 | 17 | 1004.2 |
| 20260509115004 | 75 | 269 | 0.0 | 1.0 | 0.00 | 0.00 | 0.00 | 16 | 1004.2 |
| 20260509114507 | 75 | 269 | 0.0 | 4.0 | 0.00 | 0.00 | 0.00 | 16 | 1004.2 |
| 20260509114004 | 75 | 269 | 0.0 | 4.0 | 0.00 | 0.00 | 0.00 | 15 | 1004.3 |
| 20260509113503 | 75 | 269 | 1.0 | 3.0 | 0.00 | 0.00 | 0.00 | 15 | 1004.2 |
| 20260509113004 | 75 | 269 | 1.0 | 3.0 | 0.00 | 0.00 | 0.00 | 15 | 1004.3 |
| 20260509112504 | 75 | 269 | 1.0 | 4.0 | 0.00 | 0.00 | 0.00 | 16 | 1004.3 |
| 20260509112003 | 74 | 269 | 1.0 | 4.0 | 0.00 | 0.00 | 0.00 | 16 | 1004.3 |
| 20260509111503 | 74 | 269 | 0.0 | 4.0 | 0.00 | 0.00 | 0.00 | 16 | 1004.3 |
| 20260509111002 | 75 | 269 | 0.0 | 1.0 | 0.00 | 0.00 | 0.00 | 16 | 1004.3 |
| 20260509110500 | 77 | 269 | 0.0 | 2.0 | 0.00 | 0.00 | 0.00 | 15 | 1004.2 |
| 20260509110100 | 77 | 269 | 0.0 | 2.0 | 0.00 | 0.00 | 0.00 | 15 | 1004.2 |
| 20260509105604 | 75 | 269 | 0.0 | 2.0 | 0.00 | 0.00 | 0.00 | 16 | 1004.2 |
| 20260509105100 | 75 | 269 | 0.0 | 3.0 | 0.00 | 0.00 | 0.00 | 16 | 1004.1 |
| 20260509104600 | 75 | 269 | 1.0 | 3.0 | 0.00 | 0.00 | 0.00 | 16 | 1004.1 |
| 20260509104059 | 75 | 269 | 1.0 | 4.0 | 0.00 | 0.00 | 0.00 | 16 | 1004.0 |
| 20260509103558 | 75 | 269 | 1.0 | 4.0 | 0.00 | 0.00 | 0.00 | 16 | 1004.2 |
| 20260509103058 | 76 | 269 | 1.0 | 3.0 | 0.00 | 0.00 | 0.00 | 15 | 1004.1 |
| 20260509102557 | 76 | 269 | 0.0 | 2.0 | 0.00 | 0.00 | 0.00 | 15 | 1004.1 |
| 20260509102055 | 77 | 269 | 0.0 | 2.0 | 0.00 | 0.00 | 0.00 | 15 | 1004.1 |
| 20260509101559 | 77 | 269 | 0.0 | 2.0 | 0.00 | 0.00 | 0.00 | 15 | 1004.1 |
| 20260509101053 | 78 | 269 | 0.0 | 1.0 | 0.00 | 0.00 | 0.00 | 15 | 1004.1 |
| 20260509100552 | 78 | 269 | 0.0 | 2.0 | 0.00 | 0.00 | 0.00 | 15 | 1004.0 |
| 20260509100052 | 78 | 269 | 0.0 | 3.0 | 0.00 | 0.00 | 0.00 | 14 | 1004.1 |
| 20260509095551 | 78 | 269 | 1.0 | 6.0 | 0.00 | 0.00 | 0.00 | 14 | 1004.1 |
| 20260509095051 | 78 | 269 | 1.0 | 6.0 | 0.00 | 0.00 | 0.00 | 14 | 1004.1 |
| 20260509094551 | 78 | 264 | 2.0 | 8.0 | 0.00 | 0.00 | 0.00 | 14 | 1004.1 |
| 20260509094051 | 79 | 264 | 3.0 | 8.0 | 0.00 | 0.00 | 0.00 | 13 | 1004.0 |
| 20260509093552 | 80 | 267 | 2.0 | 12.0 | 0.00 | 0.00 | 0.00 | 13 | 1004.0 |
| 20260509093057 | 81 | 266 | 1.0 | 12.0 | 0.00 | 0.00 | 0.00 | 14 | 1004.0 |
| 20260509092550 | 81 | 261 | 2.0 | 10.0 | 0.00 | 0.00 | 0.00 | 14 | 1004.0 |
| 20260509092049 | 80 | 257 | 3.0 | 10.0 | 0.00 | 0.00 | 0.00 | 14 | 1003.9 |
| 20260509091552 | 78 | 267 | 2.0 | 9.0 | 0.00 | 0.00 | 0.00 | 14 | 1004.0 |
| 20260509091053 | 78 | 266 | 0.0 | 9.0 | 0.00 | 0.00 | 0.00 | 14 | 1004.1 |
| 20260509090550 | 77 | 265 | 1.0 | 8.0 | 0.00 | 0.00 | 0.00 | 14 | 1004.1 |
| 20260509090049 | 77 | 265 | 0.0 | 8.0 | 0.00 | 0.00 | 0.00 | 14 | 1004.1 |
| 20260509085546 | 77 | 267 | 2.0 | 7.0 | 0.00 | 0.00 | 0.00 | 14 | 1004.1 |
| 20260509085045 | 78 | 269 | 0.0 | 6.0 | 0.00 | 0.00 | 0.00 | 13 | 1004.1 |
| 20260509084548 | 79 | 269 | 1.0 | 6.0 | 0.00 | 0.00 | 0.00 | 13 | 1004.1 |
| 20260509084043 | 79 | 269 | 0.0 | 6.0 | 0.00 | 0.00 | 0.00 | 13 | 1004.1 |
| 20260509083543 | 80 | 269 | 0.0 | 6.0 | 0.00 | 0.00 | 0.00 | 13 | 1004.1 |
| 20260509083046 | 81 | 269 | 0.0 | 2.0 | 0.00 | 0.00 | 0.00 | 13 | 1004.1 |
| 20260509082540 | 81 | 269 | 0.0 | 3.0 | 0.00 | 0.00 | 0.00 | 13 | 1004.2 |
| 20260509082040 | 81 | 269 | 0.0 | 4.0 | 0.00 | 0.00 | 0.00 | 12 | 1004.2 |
| 20260509081543 | 82 | 269 | 0.0 | 6.0 | 0.00 | 0.00 | 0.00 | 13 | 1004.2 |
| 20260509081040 | 82 | 269 | 1.0 | 6.0 | 0.00 | 0.00 | 0.00 | 13 | 1004.2 |
| 20260509080539 | 82 | 269 | 0.0 | 7.0 | 0.00 | 0.00 | 0.00 | 13 | 1004.1 |
| 20260509080039 | 82 | 268 | 1.0 | 8.0 | 0.00 | 0.00 | 0.00 | 13 | 1004.1 |
| 20260509075538 | 82 | 265 | 3.0 | 8.0 | 0.00 | 0.00 | 0.00 | 13 | 1004.2 |
| 20260509075038 | 82 | 265 | 3.0 | 9.0 | 0.00 | 0.00 | 0.00 | 14 | 1004.2 |
| 20260509074544 | 82 | 264 | 4.0 | 8.0 | 0.00 | 0.00 | 0.00 | 14 | 1004.2 |
| 20260509074036 | 82 | 223 | 2.0 | 13.0 | 0.00 | 0.00 | 0.00 | 14 | 1004.3 |
| 20260509073536 | 82 | 265 | 2.0 | 7.0 | 0.00 | 0.00 | 0.00 | 14 | 1004.3 |
| 20260509073036 | 82 | 254 | 3.0 | 7.0 | 0.00 | 0.00 | 0.00 | 14 | 1004.2 |
| 20260509072536 | 81 | 249 | 3.0 | 7.0 | 0.00 | 0.00 | 0.00 | 14 | 1004.3 |
| 20260509072035 | 81 | 271 | 0.0 | 3.0 | 0.00 | 0.00 | 0.00 | 13 | 1004.3 |
| 20260509071535 | 82 | 271 | 0.0 | 2.0 | 0.00 | 0.00 | 0.00 | 12 | 1004.3 |
| 20260509071032 | 82 | 271 | 0.0 | 4.0 | 0.00 | 0.00 | 0.00 | 12 | 1004.3 |
| 20260509070533 | 82 | 271 | 0.0 | 4.0 | 0.00 | 0.00 | 0.00 | 12 | 1004.3 |
| 20260509070032 | 82 | 271 | 0.0 | 4.0 | 0.00 | 0.00 | 0.00 | 12 | 1004.2 |
| 20260509065530 | 82 | 271 | 1.0 | 3.0 | 0.00 | 0.00 | 0.00 | 12 | 1004.2 |
| 20260509065031 | 82 | 271 | 1.0 | 4.0 | 0.00 | 0.00 | 0.00 | 12 | 1004.3 |
| 20260509064535 | 83 | 271 | 1.0 | 4.0 | 0.00 | 0.00 | 0.00 | 12 | 1004.2 |
| 20260509064032 | 83 | 268 | 1.0 | 4.0 | 0.00 | 0.00 | 0.00 | 12 | 1004.2 |
| 20260509063530 | 83 | 267 | 1.0 | 3.0 | 0.00 | 0.00 | 0.00 | 11 | 1004.3 |
| 20260509063030 | 83 | 265 | 0.0 | 6.0 | 0.00 | 0.00 | 0.00 | 12 | 1004.3 |
| 20260509062532 | 84 | 265 | 1.0 | 10.0 | 0.00 | 0.00 | 0.00 | 12 | 1004.2 |
| 20260509062029 | 84 | 266 | 3.0 | 10.0 | 0.00 | 0.00 | 0.00 | 12 | 1004.2 |
| 20260509061529 | 84 | 267 | 1.0 | 6.0 | 0.00 | 0.00 | 0.00 | 12 | 1004.2 |
| 20260509061029 | 83 | 265 | 1.0 | 7.0 | 0.00 | 0.00 | 0.00 | 12 | 1004.2 |
| 20260509060530 | 83 | 265 | 2.0 | 7.0 | 0.00 | 0.00 | 0.00 | 12 | 1004.2 |
| 20260509060031 | 83 | 265 | 2.0 | 7.0 | 0.00 | 0.00 | 0.00 | 12 | 1004.1 |
| 20260509055529 | 83 | 265 | 2.0 | 6.0 | 0.00 | 0.00 | 0.00 | 12 | 1004.1 |
| 20260509055028 | 83 | 265 | 1.0 | 6.0 | 0.00 | 0.00 | 0.00 | 12 | 1004.2 |
| 20260509054528 | 83 | 265 | 1.0 | 9.0 | 0.00 | 0.00 | 0.00 | 12 | 1004.1 |
| 20260509054028 | 83 | 265 | 1.0 | 9.0 | 0.00 | 0.00 | 0.00 | 12 | 1004.2 |
| 20260509053528 | 83 | 268 | 1.0 | 4.0 | 0.00 | 0.00 | 0.00 | 12 | 1004.2 |
| 20260509053028 | 83 | 269 | 1.0 | 4.0 | 0.00 | 0.00 | 0.00 | 12 | 1004.2 |
| 20260509052528 | 83 | 269 | 1.0 | 6.0 | 0.00 | 0.00 | 0.00 | 12 | 1004.2 |
| 20260509052027 | 84 | 269 | 1.0 | 6.0 | 0.00 | 0.00 | 0.00 | 12 | 1004.2 |
| 20260509051534 | 84 | 269 | 1.0 | 4.0 | 0.00 | 0.00 | 0.00 | 12 | 1004.2 |
| 20260509051028 | 84 | 269 | 1.0 | 7.0 | 0.00 | 0.00 | 0.00 | 11 | 1004.2 |
| 20260509050529 | 84 | 269 | 1.0 | 7.0 | 0.00 | 0.00 | 0.00 | 11 | 1004.2 |
| 20260509050027 | 84 | 269 | 1.0 | 6.0 | 0.00 | 0.00 | 0.00 | 11 | 1004.1 |
| 20260509045526 | 84 | 269 | 1.0 | 6.0 | 0.00 | 0.00 | 0.00 | 11 | 1004.0 |
| 20260509045026 | 84 | 269 | 1.0 | 3.0 | 0.00 | 0.00 | 0.00 | 11 | 1004.1 |
| 20260509044527 | 84 | 269 | 1.0 | 4.0 | 0.00 | 0.00 | 0.00 | 12 | 1004.0 |
| 20260509044027 | 83 | 269 | 1.0 | 6.0 | 0.00 | 0.00 | 0.00 | 12 | 1004.1 |
| 20260509043526 | 84 | 269 | 1.0 | 6.0 | 0.00 | 0.00 | 0.00 | 12 | 1004.1 |
| 20260509043026 | 84 | 269 | 1.0 | 4.0 | 0.00 | 0.00 | 0.00 | 13 | 1004.0 |
| 20260509042526 | 84 | 269 | 1.0 | 6.0 | 0.00 | 0.00 | 0.00 | 13 | 1004.0 |
| 20260509042026 | 84 | 269 | 2.0 | 8.0 | 0.00 | 0.00 | 0.00 | 13 | 1003.9 |
| 20260509041526 | 84 | 268 | 2.0 | 8.0 | 0.00 | 0.00 | 0.00 | 13 | 1003.8 |
| 20260509041025 | 84 | 270 | 1.0 | 7.0 | 0.00 | 0.00 | 0.00 | 13 | 1003.8 |
| 20260509040625 | 84 | 270 | 1.0 | 6.0 | 0.00 | 0.00 | 0.00 | 13 | 1003.8 |
| 20260509040025 | 85 | 266 | 2.0 | 6.0 | 0.00 | 0.00 | 0.00 | 13 | 1003.7 |
| 20260509035528 | 85 | 266 | 2.0 | 7.0 | 0.00 | 0.00 | 0.00 | 13 | 1003.7 |
| 20260509035028 | 85 | 264 | 2.0 | 7.0 | 0.00 | 0.00 | 0.00 | 13 | 1003.7 |
| 20260509034539 | 85 | 265 | 2.0 | 7.0 | 0.00 | 0.00 | 0.00 | 13 | 1003.6 |
| 20260509034029 | 85 | 267 | 2.0 | 6.0 | 0.00 | 0.00 | 0.00 | 13 | 1003.6 |
| 20260509033525 | 86 | 267 | 2.0 | 8.0 | 0.00 | 0.00 | 0.00 | 13 | 1003.6 |
| 20260509033025 | 86 | 266 | 3.0 | 9.0 | 0.00 | 0.00 | 0.00 | 12 | 1003.6 |
| 20260509032525 | 86 | 267 | 3.0 | 9.0 | 0.00 | 0.00 | 0.00 | 12 | 1003.6 |
| 20260509032024 | 86 | 270 | 4.0 | 10.0 | 0.00 | 0.00 | 0.00 | 12 | 1003.6 |
| 20260509031524 | 87 | 273 | 3.0 | 10.0 | 0.00 | 0.00 | 0.00 | 12 | 1003.5 |
| 20260509031024 | 87 | 265 | 4.0 | 9.0 | 0.00 | 0.00 | 0.00 | 12 | 1003.5 |
| 20260509030524 | 87 | 271 | 3.0 | 9.0 | 0.00 | 0.00 | 0.00 | 12 | 1003.5 |
| 20260509030024 | 87 | 267 | 2.0 | 8.0 | 0.00 | 0.00 | 0.00 | 12 | 1003.4 |
| 20260509025523 | 87 | 265 | 2.0 | 9.0 | 0.00 | 0.00 | 0.00 | 11 | 1003.4 |
| 20260509025023 | 87 | 234 | 4.0 | 10.0 | 0.00 | 0.00 | 0.00 | 11 | 1003.3 |
| 20260509024523 | 87 | 263 | 2.0 | 10.0 | 0.00 | 0.00 | 0.00 | 11 | 1003.3 |
| 20260509024023 | 88 | 265 | 4.0 | 11.0 | 0.00 | 0.00 | 0.00 | 11 | 1003.2 |
| 20260509023523 | 88 | 277 | 7.0 | 11.0 | 0.00 | 0.00 | 0.00 | 11 | 1003.2 |
| 20260509023023 | 88 | 261 | 4.0 | 11.0 | 0.00 | 0.00 | 0.00 | 11 | 1003.1 |
| 20260509022522 | 88 | 267 | 5.0 | 12.0 | 0.00 | 0.00 | 0.00 | 11 | 1003.1 |
| 20260509022022 | 88 | 259 | 6.0 | 11.0 | 0.00 | 0.00 | 0.00 | 10 | 1003.0 |
| 20260509021523 | 88 | 256 | 3.0 | 9.0 | 0.00 | 0.00 | 0.00 | 10 | 1003.0 |
| 20260509021021 | 89 | 265 | 4.0 | 8.0 | 0.00 | 0.00 | 0.00 | 10 | 1003.0 |
| 20260509020521 | 89 | 206 | 2.0 | 8.0 | 0.00 | 0.00 | 0.00 | 10 | 1003.0 |
| 20260509020021 | 89 | 163 | 1.0 | 5.0 | 0.00 | 0.00 | 0.00 | 10 | 1003.0 |
| 20260509015522 | 89 | 159 | 1.0 | 5.0 | 0.00 | 0.00 | 0.00 | 10 | 1003.0 |
| 20260509015021 | 90 | 221 | 1.0 | 4.0 | 0.00 | 0.00 | 0.00 | 10 | 1003.0 |
| 20260509014521 | 90 | 72 | 0.0 | 2.0 | 0.00 | 0.00 | 0.00 | 9 | 1003.2 |
| 20260509014020 | 90 | 69 | 0.0 | 5.0 | 0.00 | 0.00 | 0.00 | 9 | 1003.1 |
| 20260509013524 | 90 | 69 | 3.0 | 5.0 | 0.00 | 0.00 | 0.00 | 9 | 1003.1 |
| 20260509013022 | 91 | 29 | 0.0 | 5.0 | 0.00 | 0.00 | 0.00 | 9 | 1003.0 |
| 20260509012520 | 91 | 19 | 1.0 | 8.0 | 0.00 | 0.00 | 0.00 | 9 | 1003.0 |
| 20260509012020 | 91 | 38 | 1.0 | 8.0 | 0.00 | 0.00 | 0.00 | 8 | 1003.0 |
| 20260509011520 | 91 | 38 | 4.0 | 8.0 | 0.00 | 0.00 | 0.00 | 9 | 1003.1 |
| 20260509011019 | 91 | 15 | 1.0 | 8.0 | 0.00 | 0.00 | 0.00 | 9 | 1003.1 |
| 20260509010517 | 91 | 9 | 4.0 | 10.0 | 0.00 | 0.00 | 0.00 | 9 | 1003.2 |
| 20260509010020 | 91 | 18 | 4.0 | 10.0 | 0.00 | 0.00 | 0.00 | 9 | 1003.2 |
| 20260509005517 | 91 | 48 | 3.0 | 10.0 | 0.00 | 0.00 | 0.00 | 9 | 1003.3 |
| 20260509005016 | 91 | 13 | 3.0 | 10.0 | 0.00 | 0.00 | 0.00 | 9 | 1003.2 |
| 20260509004519 | 92 | 51 | 5.0 | 10.0 | 0.00 | 0.00 | 0.00 | 9 | 1003.3 |
| 20260509004018 | 92 | 36 | 0.0 | 10.0 | 0.00 | 0.00 | 0.00 | 9 | 1003.3 |
| 20260509003518 | 92 | 30 | 4.0 | 10.0 | 0.00 | 0.00 | 0.00 | 9 | 1003.3 |
| 20260509003016 | 92 | 11 | 6.0 | 10.0 | 0.00 | 0.00 | 0.00 | 8 | 1003.4 |
| 20260509002515 | 92 | 30 | 4.0 | 9.0 | 0.00 | 0.00 | 0.00 | 8 | 1003.5 |
| 20260509002012 | 92 | 5 | 5.0 | 10.0 | 0.00 | 0.00 | 0.00 | 8 | 1003.5 |
| 20260509001512 | 92 | 34 | 3.0 | 12.0 | 0.00 | 0.00 | 0.00 | 8 | 1003.4 |
| 20260509001012 | 92 | 34 | 5.0 | 12.0 | 0.00 | 0.00 | 0.00 | 8 | 1003.5 |
| 20260509000511 | 92 | 13 | 5.0 | 9.0 | 0.00 | 0.00 | 0.00 | 8 | 1003.5 |
| 20260509000010 | 93 | 45 | 1.0 | 16.0 | 0.00 | 0.00 | 0.00 | 9 | 1003.5 |
| 20260508235511 | 93 | 360 | 6.0 | 16.0 | 0.00 | 0.00 | 0.00 | 8 | 1003.5 |
| 20260508235010 | 92 | 24 | 4.0 | 11.0 | 0.00 | 0.00 | 0.00 | 9 | 1003.4 |
| 20260508234509 | 92 | 19 | 7.0 | 15.0 | 0.00 | 0.00 | 0.00 | 8 | 1003.4 |
| 20260508234008 | 92 | 35 | 7.0 | 15.0 | 0.00 | 0.00 | 0.00 | 9 | 1003.5 |
| 20260508233508 | 92 | 32 | 5.0 | 14.0 | 0.00 | 0.00 | 0.00 | 9 | 1003.5 |
| 20260508233007 | 92 | 54 | 8.0 | 14.0 | 0.00 | 0.00 | 0.00 | 9 | 1003.5 |
| 20260508232506 | 92 | 131 | 6.0 | 16.0 | 0.00 | 0.00 | 0.00 | 9 | 1003.5 |
| 20260508232010 | 93 | 28 | 9.0 | 16.0 | 0.00 | 0.00 | 0.00 | 9 | 1003.6 |
| 20260508231508 | 92 | 91 | 5.0 | 9.0 | 0.00 | 0.00 | 0.00 | 10 | 1003.5 |
| 20260508231005 | 93 | 42 | 4.0 | 8.0 | 0.00 | 0.00 | 0.00 | 9 | 1003.7 |
| 20260508230503 | 93 | 101 | 0.0 | 5.0 | 0.00 | 0.00 | 0.00 | 10 | 1003.7 |
| 20260508230004 | 92 | 101 | 1.0 | 8.0 | 0.00 | 0.00 | 0.00 | 10 | 1003.8 |
| 20260508225503 | 92 | 75 | 4.0 | 8.0 | 0.00 | 0.00 | 0.00 | 10 | 1003.9 |
| 20260508225002 | 92 | 78 | 2.0 | 9.0 | 0.00 | 0.00 | 0.00 | 10 | 1003.9 |
| 20260508224501 | 92 | 100 | 5.0 | 9.0 | 0.00 | 0.00 | 0.00 | 10 | 1003.9 |
| 20260508224102 | 92 | 98 | 3.0 | 9.0 | 0.00 | 0.00 | 0.00 | 10 | 1004.0 |
| 20260508224000 | 92 | 72 | 2.0 | 5.0 | 0.00 | 0.00 | 0.00 | 10 | 1004.0 |
| 20260508223600 | 92 | 75 | 1.0 | 6.0 | 0.00 | 0.00 | 0.00 | 10 | 1004.0 |
| 20260508223059 | 92 | 82 | 0.0 | 4.0 | 0.00 | 0.00 | 0.00 | 10 | 1004.2 |
| 20260508222557 | 92 | 102 | 1.0 | 4.0 | 0.00 | 0.00 | 0.00 | 10 | 1004.3 |
| 20260508222057 | 92 | 103 | 1.0 | 4.0 | 0.00 | 0.00 | 0.00 | 10 | 1004.4 |
| 20260508221556 | 92 | 103 | 1.0 | 11.0 | 0.00 | 0.00 | 0.00 | 9 | 1004.5 |
| 20260508221056 | 92 | 285 | 1.0 | 11.0 | 0.00 | 0.00 | 0.00 | 9 | 1004.7 |
| 20260508220554 | 92 | 355 | 2.0 | 5.0 | 0.00 | 0.00 | 0.00 | 9 | 1004.7 |
| 20260508220052 | 92 | 355 | 0.0 | 5.0 | 0.00 | 0.00 | 0.00 | 9 | 1004.8 |
| 20260508215552 | 91 | 19 | 2.0 | 8.0 | 0.00 | 0.00 | 0.00 | 10 | 1004.9 |
| 20260508215051 | 91 | 44 | 3.0 | 8.0 | 0.00 | 0.00 | 0.00 | 9 | 1005.0 |
| 20260508214602 | 92 | 21 | 2.0 | 5.0 | 0.00 | 0.00 | 0.00 | 9 | 1005.0 |
| 20260508214050 | 92 | 67 | 2.0 | 7.0 | 0.00 | 0.00 | 0.00 | 10 | 1005.1 |
| 20260508213548 | 92 | 78 | 1.0 | 8.0 | 0.00 | 0.00 | 0.00 | 10 | 1005.1 |
| 20260508213049 | 91 | 88 | 3.0 | 8.0 | 0.00 | 0.00 | 0.00 | 10 | 1005.2 |
| 20260508212548 | 92 | 271 | 3.0 | 9.0 | 0.00 | 0.00 | 0.00 | 10 | 1005.4 |
| 20260508212048 | 91 | 169 | 1.0 | 9.0 | 0.00 | 0.00 | 0.00 | 10 | 1005.4 |
| 20260508211546 | 92 | 168 | 4.0 | 9.0 | 0.00 | 0.00 | 0.00 | 10 | 1005.5 |
| 20260508211047 | 92 | 86 | 2.0 | 6.0 | 0.00 | 0.00 | 0.00 | 10 | 1005.5 |
| 20260508210548 | 92 | 31 | 2.0 | 5.0 | 0.00 | 0.00 | 0.00 | 10 | 1005.6 |
| 20260508210047 | 91 | 90 | 2.0 | 8.0 | 0.00 | 0.00 | 0.00 | 10 | 1005.6 |
| 20260508205544 | 92 | 51 | 4.0 | 8.0 | 0.00 | 0.00 | 0.00 | 10 | 1005.6 |
| 20260508205043 | 91 | 97 | 0.0 | 12.0 | 0.00 | 0.00 | 0.00 | 10 | 1005.8 |
| 20260508204543 | 91 | 20 | 3.0 | 12.0 | 0.00 | 0.00 | 0.00 | 10 | 1005.9 |
| 20260508204042 | 91 | 29 | 3.0 | 11.0 | 0.00 | 0.00 | 0.00 | 10 | 1005.8 |
| 20260508203540 | 91 | 5 | 5.0 | 10.0 | 0.00 | 0.00 | 0.00 | 10 | 1005.9 |
| 20260508203041 | 91 | 50 | 3.0 | 7.0 | 0.00 | 0.00 | 0.00 | 10 | 1006.0 |
| 20260508202539 | 91 | 59 | 1.0 | 6.0 | 0.00 | 0.00 | 0.00 | 10 | 1006.2 |
| 20260508202039 | 91 | 59 | 3.0 | 6.0 | 0.00 | 0.00 | 0.00 | 11 | 1006.2 |
| 20260508201539 | 91 | 102 | 3.0 | 6.0 | 0.00 | 0.00 | 0.00 | 10 | 1006.2 |
| 20260508201040 | 90 | 101 | 1.0 | 6.0 | 0.00 | 0.00 | 0.00 | 10 | 1006.3 |
| 20260508200537 | 90 | 49 | 2.0 | 9.0 | 0.00 | 0.00 | 0.00 | 11 | 1006.4 |
| 20260508200041 | 90 | 62 | 1.0 | 9.0 | 0.00 | 0.00 | 0.00 | 10 | 1006.5 |
| 20260508195535 | 91 | 132 | 1.0 | 5.0 | 0.00 | 0.00 | 0.00 | 10 | 1006.6 |
| 20260508195035 | 91 | 61 | 2.0 | 9.0 | 0.00 | 0.00 | 0.00 | 10 | 1006.7 |
| 20260508194535 | 91 | 261 | 2.0 | 9.0 | 0.00 | 0.00 | 0.00 | 10 | 1006.7 |
| 20260508194035 | 91 | 237 | 2.0 | 8.0 | 0.00 | 0.00 | 0.00 | 11 | 1006.7 |
| 20260508193534 | 90 | 48 | 1.0 | 6.0 | 0.00 | 0.00 | 0.00 | 10 | 1006.7 |
| 20260508193043 | 92 | 15 | 2.0 | 9.0 | 0.00 | 0.00 | 0.00 | 10 | 1006.9 |
| 20260508192533 | 91 | 336 | 3.0 | 7.0 | 0.00 | 0.00 | 0.00 | 10 | 1006.9 |
| 20260508192036 | 91 | 46 | 2.0 | 6.0 | 0.00 | 0.00 | 0.00 | 10 | 1006.9 |
| 20260508191544 | 91 | 325 | 3.0 | 10.0 | 0.00 | 0.00 | 0.00 | 10 | 1006.9 |
| 20260508191033 | 91 | 37 | 3.0 | 10.0 | 0.00 | 0.00 | 0.00 | 10 | 1007.0 |
| 20260508190532 | 91 | 355 | 1.0 | 6.0 | 0.00 | 0.00 | 0.00 | 11 | 1007.0 |
| 20260508190047 | 90 | 265 | 2.0 | 8.0 | 0.00 | 0.00 | 0.00 | 11 | 1007.1 |
| 20260508185534 | 90 | 315 | 3.0 | 10.0 | 0.00 | 0.00 | 0.00 | 11 | 1007.1 |
| 20260508185030 | 90 | 73 | 4.0 | 10.0 | 0.00 | 0.00 | 0.00 | 11 | 1007.2 |
| 20260508184534 | 90 | 69 | 3.0 | 12.0 | 0.00 | 0.00 | 0.00 | 11 | 1007.3 |
| 20260508184033 | 90 | 73 | 5.0 | 12.0 | 0.00 | 0.00 | 0.00 | 11 | 1007.5 |
| 20260508183529 | 91 | 51 | 3.0 | 9.0 | 0.00 | 0.00 | 0.00 | 10 | 1007.5 |
| 20260508183037 | 90 | 340 | 3.0 | 10.0 | 0.00 | 0.00 | 0.00 | 11 | 1007.6 |
| 20260508182529 | 90 | 5 | 3.0 | 13.0 | 0.00 | 0.00 | 0.00 | 11 | 1007.6 |
| 20260508182027 | 89 | 336 | 6.0 | 13.0 | 0.00 | 0.00 | 0.00 | 11 | 1007.6 |
| 20260508181526 | 89 | 10 | 3.0 | 9.0 | 0.00 | 0.00 | 0.00 | 11 | 1007.6 |
| 20260508181026 | 88 | 15 | 4.0 | 12.0 | 0.00 | 0.00 | 0.00 | 11 | 1007.6 |
| 20260508180525 | 88 | 9 | 7.0 | 12.0 | 0.00 | 0.00 | 0.00 | 11 | 1007.8 |
| 20260508180025 | 88 | 36 | 5.0 | 12.0 | 0.00 | 0.00 | 0.00 | 11 | 1007.7 |
| 20260508175525 | 88 | 65 | 5.0 | 12.0 | 0.00 | 0.00 | 0.00 | 11 | 1007.7 |
| 20260508175025 | 89 | 63 | 4.0 | 11.0 | 0.00 | 0.00 | 0.00 | 12 | 1007.7 |
| 20260508174523 | 89 | 9 | 6.0 | 11.0 | 0.00 | 0.00 | 0.00 | 11 | 1007.7 |
| 20260508174023 | 88 | 5 | 5.0 | 11.0 | 0.00 | 0.00 | 0.00 | 13 | 1007.8 |
| 20260508173525 | 88 | 9 | 5.0 | 10.0 | 0.00 | 0.00 | 0.00 | 13 | 1007.8 |
| 20260508173022 | 88 | 53 | 5.0 | 10.0 | 0.00 | 0.00 | 0.00 | 13 | 1007.9 |
| 20260508172524 | 88 | 38 | 5.0 | 10.0 | 0.00 | 0.00 | 0.00 | 13 | 1007.9 |
| 20260508172020 | 87 | 84 | 4.0 | 9.0 | 0.00 | 0.00 | 0.00 | 13 | 1007.9 |
| 20260508171521 | 87 | 56 | 4.0 | 9.0 | 0.00 | 0.00 | 0.00 | 13 | 1008.0 |
| 20260508171020 | 87 | 63 | 2.0 | 9.0 | 0.00 | 0.00 | 0.00 | 13 | 1008.0 |
| 20260508170519 | 87 | 28 | 3.0 | 8.0 | 0.00 | 0.00 | 0.00 | 13 | 1008.1 |
| 20260508170030 | 87 | 22 | 3.0 | 8.0 | 0.00 | 0.00 | 0.00 | 13 | 1008.1 |
| 20260508165520 | 86 | 34 | 3.0 | 10.0 | 0.00 | 0.00 | 0.00 | 13 | 1008.0 |
| 20260508165021 | 87 | 5 | 4.0 | 10.0 | 0.00 | 0.00 | 0.00 | 13 | 1008.1 |